Location: *
(46.1398°N, 13.7381°E)
Time: 17:26:46
(UTC+00:00)

Daily predictions for brighter satellites

Satellite Brightness Start Highest point End
(mag) Time Altitude Azimuth Time Altitude Azimuth Time Altitude Azimuth
NOSS 0 Rocket 4.0 17:21:23 10° NNW 17:27:37 74° ENE 17:33:51 10° SE
Meteor 2-15 4.5 17:21:54 10° S 17:28:02 77° E 17:34:12 10° NNE
FengYun 1-2 T 4.5 17:23:26 10° SSE 17:29:06 81° WSW 17:34:48 10° NNW
Meteor 2-15 Rocket 4.5 17:23:42 10° S 17:29:46 65° E 17:35:52 10° NNE
Cosmos 1707 3.2 17:26:22 10° N 17:30:06 40° ENE 17:33:47 10° SSE
GEOS 3 Rocket 4.5 17:25:51 10° E 17:30:23 33° NE 17:34:56 10° NNW
Cosmos 1536 Rocket 4.4 17:31:41 10° NNW 17:35:55 55° W 17:40:09 10° S
NOAA 11 4.4 17:31:19 10° SE 17:36:39 55° ENE 17:42:00 10° N
Cosmos 2154 Rocket 4.0 17:30:42 10° N 17:36:54 68° E 17:43:05 10° SSE
Envisat 3.9 17:33:34 10° S 17:38:32 54° W 17:43:31 10° NNW
Cosmos 1371 Rocket 4.3 17:34:27 10° S 17:39:30 46° ESE 17:44:36 10° NNE
Meteor 1-4 Rocket 3.5 17:36:50 10° NNE 17:39:52 26° ENE 17:42:51 10° SE
YAOGAN 1 3.0 17:39:38 10° S 17:43:56 69° WSW 17:48:16 10° NNW
COSMOS 2428 3.7 17:40:16 10° NW 17:45:44 51° WSW 17:51:12 10° S
GP-B 3.0 17:42:14 10° N 17:46:42 76° E 17:51:07 10° S
IRS-1A Rocket 4.4 17:41:34 10° SSE 17:47:07 58° ENE 17:52:35 10° N
YAOGAN 6 3.7 17:44:42 10° S 17:48:16 49° W 17:51:54 10° NNW
RESURS DK-1 4.4 17:46:04 10° N 17:48:17 14° NE 17:50:26 10° ENE
Cosmos 1892 Rocket 4.1 17:44:37 10° N 17:48:46 37° ENE 17:52:51 10° SE
Resurs 01 Rocket 3.6 17:49:03 10° ENE 17:50:28 11° ENE 17:51:53 10° NE
FREGAT/IRIS 3.3 17:52:04 11° SE 17:54:28 29° ENE 17:56:59 10° N
Cosmos 2227 Rocket 2.5 17:49:21 10° S 17:54:42 44° ESE 18:00:04 10° NE
BREEZE-M DEB (TANK) 3.8 17:56:00 10° WNW 17:59:58 53° N 18:07:35 12° E
Cosmos 2084 Rocket 3.5 17:55:37 10° SSW 17:59:59 61° SE 18:04:25 10° NE
CZ-2C R/B 4.3 17:57:13 10° NNE 18:01:13 32° E 18:05:10 10° SSE
Cosmos 2219 3.2 17:56:06 10° SSW 18:01:52 84° ESE 18:07:38 10° NNE
CZ-2D R/B 3.4 17:58:23 10° S 18:02:11 77° WSW 18:06:00 10° NNW
ADEOS Rocket 4.2 17:57:26 10° NNE 18:03:54 30° E 18:10:32 10° SSE
Cosmos 2297 Rocket 2.3 17:59:08 10° S 18:04:38 56° ESE 18:10:11 10° NE
Cosmos 1190 Rocket 4.0 18:00:04 10° NNW 18:05:24 82° ENE 18:10:39 10° SSE
Cosmos 614 Rocket 4.0 18:00:18 10° NNW 18:05:34 88° ENE 18:10:44 10° SSE
NOSS 3-4 (A) 4.4 18:00:06 10° NW 18:07:01 61° WSW 18:14:35 10° SSE
NOSS 3-4 (C) 4.4 18:00:12 10° NW 18:07:08 61° WSW 18:14:41 10° SSE
FAST 4.3 18:04:54 10° S 18:07:43 60° E 18:10:20 10° NNE
SJ-6B 3.6 18:05:30 14° SE 18:08:33 35° ENE 18:12:15 10° N
Nadezhda 1 Rocket 4.4 18:04:37 10° SSW 18:10:39 68° W 18:16:45 10° N
Cosmos 1766 4.2 18:07:41 10° SSE 18:10:59 26° E 18:14:16 10° NNE
MONITOR-E 3.8 18:08:14 10° SSE 18:11:02 81° ENE 18:13:51 10° N
H-2A R/B 2.7 18:09:16 16° ESE 18:12:29 33° ENE 18:16:59 10° N
CZ-4 R/B 4.0 18:10:38 10° SSW 18:13:47 23° W 18:17:01 10° NW
Cosmos 1295 Rocket 4.5 18:08:26 10° N 18:14:37 86° W 18:20:43 10° S
Okean 1-7 Rocket 3.5 18:10:22 10° N 18:14:50 71° E 18:19:19 10° SSE
Orbus 7S? 4.5 18:10:50 10° SW 18:15:08 75° SE 18:25:48 10° NE
SL-8 R/B 3.9 18:13:39 10° WNW 18:18:26 67° N 18:21:34 21° E
In-Cosmos 22 4.1 18:14:00 10° N 18:19:25 82° E 18:24:57 10° SSE
Ariane Rocket 3.4 18:15:46 10° S 18:20:47 66° WSW 18:25:52 10° NNW
HJ-1C 3.7 18:18:35 10° S 18:21:57 67° W 18:25:20 10° NNW
Cosmos 405 Rocket 2.5 18:19:56 10° S 18:23:37 82° E 18:27:21 10° NNE
USA 234 4.2 18:20:09 10° NE 18:26:18 45° NNW 18:32:27 10° W
Cosmos 1455 Rocket 3.0 18:22:38 10° S 18:27:00 61° E 18:31:25 10° NNE
Cosmos 1544 Rocket 3.7 18:22:44 10° SSE 18:27:02 49° E 18:31:21 10° NNE
BREEZE-M DEB (TANK) 4.2 18:12:25 10° WNW 18:27:32 80° SSW 18:29:55 26° ESE
PSLV R/B 4.0 18:25:50 10° WSW 18:28:09 26° S 18:28:09 26° S
ASTEX 1 3.3 18:24:11 10° N 18:29:06 88° E 18:33:59 10° S
Lacrosse 5 rocket 1.1 18:25:48 10° SW 18:29:26 76° NW 18:32:25 16° NE
Cosmos 389 Rocket 3.4 18:26:13 10° NNW 18:29:32 48° W 18:32:51 10° S
Cosmos 1674 2.9 18:26:39 10° N 18:30:14 43° ENE 18:31:15 34° ESE
MOS 1 4.4 18:26:08 10° SSE 18:31:50 83° WSW 18:37:34 10° NNW
Cosmos 407 Rocket 4.2 18:27:25 10° NNW 18:32:24 53° WSW 18:37:21 10° S
USA 186 1.8 18:33:12 24° SSE 18:35:08 80° ENE 18:38:33 10° N
Cosmos 2237 Rocket 3.0 18:30:37 10° NW 18:36:08 51° WSW 18:41:38 10° S
Cosmos 2056 Rocket 3.8 18:32:28 10° SSW 18:37:53 72° WNW 18:43:18 10° NNE
Cosmos 1939 Rocket 4.5 18:34:45 10° SSW 18:38:16 34° W 18:41:49 10° NNW
Cosmos 1437 Rocket 2.6 18:34:34 10° N 18:38:21 64° ENE 18:39:44 36° SE
ISS -3.2 18:35:55 10° W 18:39:12 56° NNW 18:40:31 31° NE
Cosmos 1420 Rocket 4.0 18:34:32 10° S 18:39:43 57° ESE 18:44:57 10° NNE
ERBS 2.2 18:39:02 10° NW 18:42:26 81° SW 18:43:05 55° SE
DELTA 2 R/B (1) 4.1 18:37:31 10° WSW 18:42:48 43° S 18:44:50 31° SE
Cosmos 1140 Rocket 3.9 18:40:34 10° NNW 18:45:40 61° WSW 18:50:36 11° S
SAR-Lupe-2 4.0 18:42:17 10° N 18:45:50 62° WNW 18:49:21 10° SSW
Cosmos 1626 Rocket 3.7 18:41:53 10° N 18:46:07 51° ENE 18:47:01 43° ESE
Meteor 1-24 Rocket 3.7 18:44:32 10° N 18:50:24 72° ENE 18:54:22 22° SSE
Cosmos 1741 Rocket 4.2 18:49:37 10° NNW 18:54:51 53° ENE 18:56:13 42° ESE
Cosmos 1954 Rocket 4.3 18:51:10 10° NNW 18:56:21 66° WSW 18:59:57 20° S
Cosmos 1805 3.1 18:54:15 19° S 18:57:01 86° E 19:00:56 10° N
Spot 2 Rocket 4.4 18:57:28 30° ENE 18:57:28 30° ENE 19:01:50 10° N
CZ-2C R/B 4.5 19:00:35 10° NE 19:02:08 16° NE 19:02:08 16° NE
Cosmos 1603 4.3 19:00:19 10° NNW 19:05:36 38° NE 19:06:20 36° ENE
Cosmos 2181 Rocket 4.4 19:00:28 10° SSW 19:06:41 64° WNW 19:13:03 10° N
SL-08 R/B 4.5 19:01:17 10° N 19:07:47 81° E 19:11:30 27° SSE
GEOS 3 Rocket 3.9 19:05:53 31° SSE 19:08:13 59° SW 19:13:18 10° NW
Cosmos 1602 Rocket 3.3 19:04:16 10° N 19:08:36 71° E 19:08:44 71° E
KORONAS-FOTON 3.9 19:04:55 10° NNW 19:08:41 72° W 19:09:08 63° SSW
Resurs 1-3 3.4 19:08:40 67° SE 19:09:09 76° ENE 19:13:33 10° N
Cosmos 1626 3.9 19:06:00 10° N 19:07:34 21° NNE 19:07:34 21° NNE
SL-16 R/B 2.4 19:04:21 10° NNW 19:10:01 71° WSW 19:12:43 32° S
Lacrosse 5 3.0 19:05:47 10° SSW 19:08:27 28° S 19:08:27 28° S
Cosmos 482 Debris 4.3 19:06:29 10° WSW 19:10:36 64° WSW 19:10:36 64° WSW
Nadezhda 3 Rocket 4.1 19:11:02 46° ESE 19:11:49 48° E 19:17:45 10° NNE
Cosmos 2366 rocket 4.4 19:12:08 10° NNW 19:18:26 64° W 19:24:13 12° S
Cosmos 1733 4.4 19:23:18 34° N 19:23:18 34° N 19:25:33 10° N
SPOT 3 Rocket 4.4 19:19:19 17° SSW 19:23:04 47° W 19:28:03 10° NNW
ARGOS 3.4 19:20:36 32° S 19:23:07 68° WSW 19:28:32 10° NNW
Cosmos 2082 4.2 19:19:01 10° SW 19:24:41 61° WNW 19:30:22 10° NNE
Cosmos 1821 Rocket 3.9 19:19:37 10° N 19:25:43 61° ENE 19:26:17 58° ESE
Resurs 01 Rocket 1.6 19:26:29 79° N 19:26:29 79° N 19:30:42 10° NNW
RESURS DK-1 2.6 19:22:45 10° NNW 19:26:21 65° NW 19:26:21 65° NW
CZ-2C R/B 3.1 19:30:51 62° S 19:31:49 86° WSW 19:37:28 10° NNW
Cosmos 1452 Rocket 3.8 19:26:45 10° SSW 19:31:57 65° WNW 19:37:12 10° NNE
Cosmos 2239 Rocket 4.4 19:26:08 10° N 19:32:20 62° ENE 19:32:40 61° E
MetOp-A 4.1 19:34:27 63° S 19:35:19 80° WSW 19:40:43 10° NNW
Cosmos 2227 Rocket 3.8 19:33:48 10° WSW 19:38:53 33° NW 19:44:01 10° NNE
Cosmos 2297 Rocket 4.2 19:44:14 10° WSW 19:49:02 28° NW 19:53:52 10° N
ADEOS Rocket 3.9 19:42:22 10° N 19:49:45 66° WNW 19:57:25 10° SSW
Meteor 2-12 Rocket 4.3 19:44:23 10° N 19:50:33 89° E 19:50:51 82° SSE
H-2A R/B 3.4 19:49:53 25° SW 19:51:52 34° W 19:56:29 10° NNW
CZ-4C R/B 4.2 19:49:30 10° NNW 19:55:04 26° NNE 19:56:54 24° NE
USA 234 4.5 20:05:27 24° NE 20:08:26 34° N 20:14:13 10° WNW
Cosmos 1943 3.6 20:03:17 10° NNW 20:07:51 57° N 20:07:51 57° N
Lacrosse 5 rocket 3.7 20:06:10 10° WNW 20:08:06 19° NW 20:08:06 19° NW
BREEZE M DEB (TANK) 4.4 20:11:15 10° WNW 20:12:29 27° WNW 20:12:29 27° WNW
ISS -0.2 20:13:22 10° WNW 20:13:26 10° WNW 20:13:26 10° WNW
ERS-1 Rocket 4.4 20:20:57 31° N 20:20:57 31° N 20:23:36 10° N
Cosmos 1934 Rocket 4.2 20:15:01 10° N 20:20:15 66° NNW 20:20:15 66° NNW
Terra 4.0 20:25:42 19° N 20:25:42 19° N 20:27:08 10° N
CZ-2C R/B 4.0 20:40:09 10° N 20:43:38 37° NNW 20:43:38 37° NNW
Cosmos 2263 Rocket 4.5 21:43:23 19° N 21:43:23 19° N 21:45:22 10° N
CZ-4C R/B 3.8 21:37:44 10° NW 21:42:04 41° NNW 21:42:04 41° NNW
SL-16 R/B 4.5 23:28:50 23° NNE 23:28:50 23° NNE 23:32:00 10° N
